Date String (YYYY-MM-DD hh:mm:ss) UTC,Instrument flags,Ambient pressure (hPa),Sample flow (lpm),Bypass flow (lpm),Sample temperature (°C),Ambient temperature (°C),ASC tube jacket temperature (°C),LED temperature (°C),Box temperature (°C),Sample RH (%),Span deviation,Mass concentration (μg/m³),Mass concentration (μg/m³),Mass concentration (μg/m³)
DateTimeUTC,F1_M11,P_M11,Q1_M11,Q2_M11,T1_M11,T2_M11,T3_M11,T4_M11,T5_M11,U1_M11,ZSPAN_M11,X0_M11,X2_M11,X1_M11
2023-03-02 04:00:00,,0817.4,5.00,0.00,22.5,21.1,00.0,31.2,24.2,14.5,0000.0,0008.27,0003.32,0002.84
2023-03-02 04:01:00,,0817.4,5.01,0.00,22.5,21.0,00.0,31.2,24.2,14.5,0000.0,0008.19,0003.34,0002.84
2023-03-02 04:02:00,,0817.4,5.00,0.00,22.5,20.9,00.0,31.2,24.2,14.5,0000.0,0008.00,0003.33,0002.83
2023-03-02 04:03:00,,0817.4,5.00,0.00,22.5,20.9,00.0,31.2,24.1,14.5,0000.0,0007.95,0003.31,0002.84
2023-03-02 04:04:00,,0817.3,4.99,0.00,22.4,20.8,00.0,31.2,24.1,14.5,0000.0,0007.98,0003.32,0002.87
2023-03-02 04:05:00,,0817.4,5.00,0.00,22.4,20.8,00.0,31.2,24.1,14.5,0000.0,0008.00,0003.32,0002.88
2023-03-02 04:06:00,,0817.4,5.00,0.00,22.4,20.8,00.0,31.2,24.0,14.5,0000.0,0007.68,0003.34,0002.89
2023-03-02 04:07:00,,0817.4,5.00,0.00,22.4,20.8,00.0,31.2,24.0,14.6,0000.0,0007.45,0003.34,0002.90
2023-03-02 04:08:00,,0817.4,5.00,0.00,22.4,20.8,00.0,31.2,24.0,14.6,0000.0,0007.45,0003.35,0002.92
2023-03-02 04:09:00,,0817.4,5.01,0.00,22.3,20.7,00.0,31.2,24.0,14.5,0000.0,0006.41,0003.35,0002.93
2023-03-02 04:10:00,,0817.4,5.00,0.00,22.3,20.7,00.0,31.1,24.0,14.5,0000.0,0006.29,0003.35,0002.93
2023-03-02 04:11:00,,0817.4,4.99,0.00,22.3,20.7,00.0,31.1,24.0,14.5,0000.0,0005.94,0003.37,0002.92
2023-03-02 04:12:00,,0817.4,5.01,0.00,22.3,21.1,00.0,31.1,24.1,14.5,0000.0,0005.96,0003.38,0002.93
2023-03-02 04:13:00,,0817.5,4.99,0.00,22.4,22.2,00.0,31.1,24.3,14.4,0000.0,0005.96,0003.39,0002.95
2023-03-02 04:14:00,,0817.5,5.00,0.00,22.5,23.1,00.0,31.1,24.5,14.3,0000.0,0006.01,0003.39,0002.96
2023-03-02 04:15:00,,0817.5,5.00,0.00,22.6,23.0,00.0,31.2,24.6,14.2,0000.0,0005.90,0003.37,0002.95
2023-03-02 04:16:00,,0817.5,5.02,0.00,22.6,22.5,00.0,31.2,24.5,14.2,0000.0,0005.96,0003.39,0002.95
2023-03-02 04:17:00,,0817.5,4.96,0.00,22.6,22.2,00.0,31.2,24.4,14.2,0000.0,0005.68,0003.39,0002.95
2023-03-02 04:18:00,,0817.4,5.00,0.00,22.6,21.8,00.0,31.2,24.4,14.2,0000.0,0005.45,0003.39,0002.94
2023-03-02 04:19:00,,0817.4,5.00,0.00,22.6,21.6,00.0,31.3,24.3,14.2,0000.0,0005.24,0003.35,0002.93
2023-03-02 04:20:00,,0817.4,4.99,0.00,22.6,21.4,00.0,31.3,24.2,14.2,0000.0,0005.19,0003.35,0002.92
2023-03-02 04:21:00,,0817.4,5.00,0.00,22.5,21.3,00.0,31.3,24.2,14.2,0000.0,0005.14,0003.33,0002.92
2023-03-02 04:22:00,,0817.4,5.01,0.00,22.5,21.2,00.0,31.3,24.2,14.2,0000.0,0005.15,0003.31,0002.91
2023-03-02 04:23:00,,0817.4,4.99,0.00,22.5,21.1,00.0,31.3,24.2,14.2,0000.0,0005.28,0003.29,0002.92
2023-03-02 04:24:00,,0817.4,5.02,0.00,22.5,21.1,00.0,31.3,24.2,14.2,0000.0,0005.58,0003.29,0002.91
2023-03-02 04:25:00,,0817.4,5.00,0.00,22.5,21.0,00.0,31.3,24.1,14.2,0000.0,0005.60,0003.30,0002.92
2023-03-02 04:26:00,,0817.4,4.99,0.00,22.5,21.0,00.0,31.2,24.1,14.2,0000.0,0005.69,0003.29,0002.92
2023-03-02 04:27:00,,0817.4,5.00,0.00,22.4,21.0,00.0,31.2,24.1,14.2,0000.0,0006.13,0003.29,0002.92
2023-03-02 04:28:00,,0817.4,4.99,0.00,22.4,20.9,00.0,31.2,24.1,14.2,0000.0,0006.88,0003.30,0002.91
2023-03-02 04:29:00,,0817.3,4.99,0.00,22.4,20.9,00.0,31.2,24.1,14.2,0000.0,0006.95,0003.29,0002.93
2023-03-02 04:30:00,,0817.3,5.00,0.00,22.4,20.9,00.0,31.2,24.1,14.2,0000.0,0007.30,0003.32,0002.94
2023-03-02 04:31:00,,0817.3,5.00,0.00,22.4,20.8,00.0,31.2,24.1,14.2,0000.0,0007.34,0003.33,0002.96
2023-03-02 04:32:00,,0817.4,5.00,0.00,22.4,20.8,00.0,31.2,24.0,14.2,0000.0,0007.66,0003.35,0002.97
2023-03-02 04:33:00,,0817.3,5.00,0.00,22.3,20.7,00.0,31.2,24.0,14.2,0000.0,0007.99,0003.37,0002.99
2023-03-02 04:34:00,,0817.3,4.99,0.00,22.3,20.7,00.0,31.2,24.0,14.2,0000.0,0008.15,0003.40,0003.01
2023-03-02 04:35:00,,0817.3,5.00,0.00,22.3,21.2,00.0,31.1,24.1,14.2,0000.0,0008.89,0003.45,0003.04
2023-03-02 04:36:00,,0817.3,4.97,0.00,22.4,22.3,00.0,31.1,24.3,14.1,0000.0,0009.15,0003.48,0003.05
2023-03-02 04:37:00,,0817.3,5.00,0.00,22.6,23.1,00.0,31.1,24.5,14.0,0000.0,0009.20,0003.51,0003.08
2023-03-02 04:38:00,,0817.3,5.00,0.00,22.6,22.8,00.0,31.2,24.5,13.9,0000.0,0009.12,0003.53,0003.11
2023-03-02 04:39:00,,0817.3,5.00,0.00,22.6,22.4,00.0,31.2,24.4,13.9,0000.0,0008.60,0003.54,0003.12
2023-03-02 04:40:00,,0817.3,5.00,0.00,22.6,22.0,00.0,31.2,24.4,13.9,0000.0,0008.63,0003.54,0003.13
2023-03-02 04:41:00,,0817.3,4.99,0.00,22.6,21.7,00.0,31.2,24.3,13.9,0000.0,0008.52,0003.54,0003.14
2023-03-02 04:42:00,,0817.3,5.01,0.00,22.6,21.5,00.0,31.3,24.3,13.8,0000.0,0008.50,0003.56,0003.15
2023-03-02 04:43:00,,0817.3,4.99,0.00,22.5,21.3,00.0,31.3,24.2,13.8,0000.0,0008.33,0003.57,0003.16
2023-03-02 04:44:00,,0817.3,4.99,0.00,22.5,21.1,00.0,31.2,24.2,13.8,0000.0,0007.90,0003.56,0003.16
2023-03-02 04:45:00,,0817.3,5.00,0.00,22.5,21.0,00.0,31.2,24.1,13.9,0000.0,0007.92,0003.56,0003.17
2023-03-02 04:46:00,,0817.3,5.00,0.00,22.5,20.9,00.0,31.2,24.1,13.9,0000.0,0006.60,0003.52,0003.17
2023-03-02 04:47:00,,0817.3,5.00,0.00,22.4,20.8,00.0,31.2,24.1,13.9,0000.0,0006.13,0003.50,0003.18
2023-03-02 04:48:00,,0817.2,5.01,0.00,22.4,20.8,00.0,31.2,24.1,13.9,0000.0,0007.30,0003.50,0003.18
2023-03-02 04:49:00,,0817.2,5.01,0.00,22.4,20.7,00.0,31.2,24.1,13.9,0000.0,0007.53,0003.49,0003.18
2023-03-02 04:50:00,,0817.2,4.99,0.00,22.4,20.7,00.0,31.2,24.1,13.9,0000.0,0008.01,0003.47,0003.19
2023-03-02 04:51:00,,0817.2,5.01,0.00,22.4,20.7,00.0,31.2,24.0,13.9,0000.0,0008.12,0003.47,0003.18
2023-03-02 04:52:00,,0817.2,5.00,0.00,22.3,20.6,00.0,31.2,24.0,13.9,0000.0,0008.02,0003.44,0003.17
2023-03-02 04:53:00,,0817.2,5.00,0.00,22.3,20.5,00.0,31.2,23.9,13.9,0000.0,0008.01,0003.40,0003.15
2023-03-02 04:54:00,,0817.2,4.99,0.00,22.3,20.6,00.0,31.1,23.9,13.8,0000.0,0008.17,0003.40,0003.14
2023-03-02 04:55:00,,0817.1,5.01,0.00,22.3,21.4,00.0,31.1,24.1,13.8,0000.0,0008.73,0003.40,0003.12
2023-03-02 04:56:00,,0817.1,4.99,0.00,22.4,22.5,00.0,31.1,24.4,13.7,0000.0,0008.72,0003.38,0003.10
2023-03-02 04:57:00,,0817.2,5.00,0.00,22.6,23.1,00.0,31.1,24.6,13.6,0000.0,0008.66,0003.36,0003.05
2023-03-02 04:58:00,,0817.1,4.99,0.00,22.6,22.7,00.0,31.2,24.5,13.6,0000.0,0008.52,0003.32,0003.01
2023-03-02 04:59:00,,0817.1,4.97,0.00,22.6,22.2,00.0,31.2,24.4,13.6,0000.0,0007.93,0003.31,0002.97
